Location: Downe
(51.3167°N, 0.0500°E)
Time: 19:12:42
(UTC+00:00)

COSMOS 2487 - Pass Details

Date: 17 November 2019
Orbit: 443 x 448 km, 74.7° (Epoch: 12 December)

Event Time Altitude Azimuth Distance (km) Brightness Sun altitude
Rises 06:16:59 0° 215° (SW) 2,430 5.9 -9.8°
Reaches altitude 10° 06:19:06 10° 222° (SW) 1,564 4.9 -9.5°
Maximum altitude 06:22:26 48° 297° (WNW) 595 2.6 -9.0°
Drops below altitude 10° 06:25:49 10° 14° (NNE) 1,578 5.1 -8.5°
Sets 06:27:57 0° 20° (NNE) 2,455 6.1 -8.2°
